This is the latest recevied weather packets stored in our database for station/object K1RFS. If no packets are shown the sender has not sent any weather packets the latest 10 day(s).
| Time | Temp. | Humidity | Pressure | Rain* | Wind** | Luminosity | Snow |
|---|---|---|---|---|---|---|---|
| 1787911280 | 22.78° C | 48% | 1004.9 hPa | 0 mm | - | 0 W/m² | - |
| 1787910976 | 23.33° C | 46% | 1004.9 hPa | 0 mm | - | 0 W/m² | - |
| 1787910673 | 23.33° C | 45% | 1005 hPa | 0 mm | - | 0 W/m² | - |
| 1787910372 | 23.33° C | 44% | 1005 hPa | 0 mm | - | 0 W/m² | - |
| 1787910068 | 23.89° C | 43% | 1005 hPa | 0 mm | - | 0 W/m² | - |
| 1787909765 | 23.89° C | 42% | 1005.2 hPa | 0 mm | - | 0 W/m² | - |
| 1787909465 | 23.89° C | 42% | 1005 hPa | 0 mm | - | 0 W/m² | - |
| 1787909160 | 23.89° C | 42% | 1004.8 hPa | 0 mm | - | 0 W/m² | - |
| 1787908856 | 23.33° C | 42% | 1005.4 hPa | 0 mm | - | 0 W/m² | - |
| 1787908556 | 23.33° C | 45% | 1005.3 hPa | 0 mm | - | 0 W/m² | - |
| 1787908256 | 22.78° C | 44% | 1005.3 hPa | 0 mm | - | 0 W/m² | - |
| 1787907955 | 22.78° C | 45% | 1005.3 hPa | 0 mm | - | 0 W/m² | - |
| 1787907651 | 22.78° C | 46% | 1005 hPa | 0 mm | - | 0 W/m² | - |
| 1787907350 | 22.78° C | 46% | 1005.3 hPa | 0 mm | - | 0 W/m² | - |
| 1787907046 | 22.78° C | 45% | 1005.3 hPa | 0 mm | - | 0 W/m² | - |
| 1787906742 | 22.78° C | 45% | 1004.9 hPa | 0 mm | - | 0 W/m² | - |
| 1787906438 | 22.78° C | 46% | 1005 hPa | 0 mm | - | 0 W/m² | - |
| 1787906137 | 22.78° C | 46% | 1005.3 hPa | 0 mm | - | 0 W/m² | - |
| 1787905828 | 22.22° C | 47% | 1005.2 hPa | 0 mm | - | 0 W/m² | - |
| 1787905528 | 21.67° C | 49% | 1005.2 hPa | 0 mm | - | 0 W/m² | - |
| 1787905225 | 21.11° C | 51% | 1005.2 hPa | 0 mm | - | 0 W/m² | - |
| 1787904923 | 21.11° C | 52% | 1005.2 hPa | 0 mm | - | 0 W/m² | - |
| 1787904621 | 21.11° C | 52% | 1005.4 hPa | 0 mm | - | 0 W/m² | - |
| 1787904319 | 21.11° C | 51% | 1005.4 hPa | 0 mm | - | 0 W/m² | - |
| 1787904015 | 21.11° C | 52% | 1005.4 hPa | 0 mm | - | 0 W/m² | - |
* Rain latest hour (hover to see other rain measurements)
** Current wind speed in m/s (hover to see current wind gust speed)